Time,TemperatureF,DewpointF,PressureIn,WindDirection,WindDirectionDegrees,WindSpeedMPH,WindSpeedGustMPH,Humidity,HourlyPrecipIn,Conditions,Clouds,dailyrainin,SoftwareType,DateUTC
2013-05-15 00:03:00,78.0,67.0,30.06,North,0,0.0,0.0,68,-99.99,,,-99.99,,2013-05-15 04:03:00,
2013-05-15 00:24:00,78.0,67.0,30.06,North,0,0.0,0.0,68,-99.99,,,-99.99,,2013-05-15 04:24:00,
2013-05-15 00:33:00,78.0,67.0,30.06,North,0,0.0,0.0,68,-99.99,,,-99.99,,2013-05-15 04:33:00,
2013-05-15 00:52:00,78.0,67.0,30.06,North,0,0.0,0.0,68,-99.99,,,-99.99,,2013-05-15 04:52:00,
2013-05-15 01:02:00,78.0,67.0,30.06,North,0,0.0,0.0,68,-99.99,,,-99.99,,2013-05-15 05:02:00,
2013-05-15 01:22:00,78.0,67.0,30.06,North,0,0.0,0.0,68,-99.99,,,-99.99,,2013-05-15 05:22:00,
2013-05-15 01:32:00,78.0,67.0,30.06,North,0,0.0,0.0,68,-99.99,,,-99.99,,2013-05-15 05:32:00,
2013-05-15 01:52:00,78.0,67.0,30.06,North,0,0.0,0.0,68,-99.99,,,-99.99,,2013-05-15 05:52:00,
2013-05-15 02:02:00,78.0,67.0,30.06,North,0,0.0,0.0,68,-99.99,,,-99.99,,2013-05-15 06:02:00,
2013-05-15 02:21:00,78.0,67.0,30.06,North,0,0.0,0.0,68,-99.99,,,-99.99,,2013-05-15 06:21:00,
2013-05-15 02:32:00,78.0,67.0,30.06,North,0,0.0,0.0,68,-99.99,,,-99.99,,2013-05-15 06:32:00,
2013-05-15 02:52:00,78.0,67.0,30.06,North,0,0.0,0.0,68,-99.99,,,-99.99,,2013-05-15 06:52:00,
2013-05-15 03:01:00,78.0,67.0,30.06,North,0,0.0,0.0,68,-99.99,,,-99.99,,2013-05-15 07:01:00,
2013-05-15 03:22:00,78.0,67.0,30.06,North,0,0.0,0.0,68,-99.99,,,-99.99,,2013-05-15 07:22:00,
2013-05-15 03:32:00,78.0,67.0,30.06,North,0,0.0,0.0,68,-99.99,,,-99.99,,2013-05-15 07:32:00,
2013-05-15 03:52:00,78.0,67.0,30.06,North,0,0.0,0.0,68,-99.99,,,-99.99,,2013-05-15 07:52:00,
2013-05-15 04:02:00,78.0,67.0,30.06,North,0,0.0,0.0,68,-99.99,,,-99.99,,2013-05-15 08:02:00,
2013-05-15 04:21:00,78.0,67.0,30.06,North,0,0.0,0.0,68,-99.99,,,-99.99,,2013-05-15 08:21:00,
2013-05-15 04:32:00,78.0,67.0,30.06,North,0,0.0,0.0,68,-99.99,,,-99.99,,2013-05-15 08:32:00,
2013-05-15 04:42:00,78.0,67.0,30.06,North,0,0.0,0.0,68,-99.99,,,-99.99,,2013-05-15 08:42:00,
2013-05-15 04:53:00,78.0,67.0,30.06,North,0,0.0,0.0,68,-99.99,,,-99.99,,2013-05-15 08:53:00,
2013-05-15 05:01:00,78.0,67.0,30.06,North,0,0.0,0.0,68,-99.99,,,-99.99,,2013-05-15 09:01:00,
2013-05-15 05:11:00,78.0,67.0,30.06,North,0,0.0,0.0,68,-99.99,,,-99.99,,2013-05-15 09:11:00,
2013-05-15 05:21:00,78.0,67.0,30.06,North,0,0.0,0.0,68,-99.99,,,-99.99,,2013-05-15 09:21:00,
2013-05-15 05:33:00,78.0,67.0,30.06,North,0,0.0,0.0,68,-99.99,,,-99.99,,2013-05-15 09:33:00,
2013-05-15 05:42:00,78.0,67.0,30.06,North,0,0.0,0.0,68,-99.99,,,-99.99,,2013-05-15 09:42:00,
2013-05-15 05:53:00,78.0,67.0,30.06,North,0,0.0,0.0,68,-99.99,,,-99.99,,2013-05-15 09:53:00,
2013-05-15 06:02:00,78.0,67.0,30.06,North,0,0.0,0.0,68,-99.99,,,-99.99,,2013-05-15 10:02:00,
2013-05-15 06:13:00,78.0,67.0,30.06,North,0,0.0,0.0,68,-99.99,,,-99.99,,2013-05-15 10:13:00,
2013-05-15 06:22:00,78.0,67.0,30.06,North,0,0.0,0.0,68,-99.99,,,-99.99,,2013-05-15 10:22:00,
2013-05-15 06:32:00,78.0,67.0,30.06,North,0,0.0,0.0,68,-99.99,,,-99.99,,2013-05-15 10:32:00,
2013-05-15 06:42:00,78.0,67.0,30.06,North,0,0.0,0.0,68,-99.99,,,-99.99,,2013-05-15 10:42:00,
2013-05-15 06:52:00,78.0,67.0,30.06,North,0,0.0,0.0,68,-99.99,,,-99.99,,2013-05-15 10:52:00,
2013-05-15 07:11:00,78.0,67.0,30.06,North,0,0.0,0.0,68,-99.99,,,-99.99,,2013-05-15 11:11:00,
2013-05-15 07:19:00,78.0,67.0,30.06,North,0,0.0,0.0,68,-99.99,,,-99.99,,2013-05-15 11:19:00,
2013-05-15 07:27:00,78.0,67.0,30.06,North,0,0.0,0.0,68,-99.99,,,-99.99,,2013-05-15 11:27:00,
2013-05-15 07:37:00,78.0,67.0,30.06,North,0,0.0,0.0,68,-99.99,,,-99.99,,2013-05-15 11:37:00,
2013-05-15 07:47:00,78.0,67.0,30.06,North,0,0.0,0.0,68,-99.99,,,-99.99,,2013-05-15 11:47:00,
2013-05-15 08:01:00,78.0,67.0,30.06,North,0,0.0,0.0,68,-99.99,,,-99.99,,2013-05-15 12:01:00,
2013-05-15 08:09:00,78.0,67.0,30.06,North,0,0.0,0.0,68,-99.99,,,-99.99,,2013-05-15 12:09:00,
2013-05-15 08:15:00,78.0,67.0,30.06,North,0,0.0,0.0,68,-99.99,,,-99.99,,2013-05-15 12:15:00,
2013-05-15 08:29:00,78.0,67.0,30.06,North,0,0.0,0.0,68,-99.99,,,-99.99,,2013-05-15 12:29:00,
2013-05-15 08:36:00,78.0,67.0,30.06,North,0,0.0,0.0,68,-99.99,,,-99.99,,2013-05-15 12:36:00,
2013-05-15 08:47:00,78.0,67.0,30.06,North,0,0.0,0.0,68,-99.99,,,-99.99,,2013-05-15 12:47:00,
2013-05-15 08:57:00,75.0,57.0,30.15,North,0,0.0,0.0,54,-99.99,,,-99.99,,2013-05-15 12:57:00,
2013-05-15 09:09:00,75.0,57.0,30.16,NNE,28,12.0,21.0,54,-99.99,,,-99.99,,2013-05-15 13:09:00,
2013-05-15 09:19:00,75.0,57.0,30.16,NNE,28,12.0,21.0,54,-99.99,,,-99.99,,2013-05-15 13:19:00,
2013-05-15 09:26:00,74.0,57.0,30.16,ENE,69,1.0,17.0,55,-99.99,,,-99.99,,2013-05-15 13:26:00,
2013-05-15 09:36:00,76.0,58.0,30.16,North,0,0.0,0.0,53,-99.99,,,-99.99,,2013-05-15 13:36:00,
2013-05-15 09:46:00,76.0,58.0,30.16,North,0,0.0,0.0,53,-99.99,,,-99.99,,2013-05-15 13:46:00,
2013-05-15 10:06:00,75.0,58.0,30.17,North,0,0.0,0.0,55,-99.99,,,-99.99,,2013-05-15 14:06:00,
2013-05-15 10:14:00,75.0,58.0,30.17,North,0,0.0,0.0,55,-99.99,,,-99.99,,2013-05-15 14:14:00,
2013-05-15 10:27:00,75.0,58.0,30.17,North,0,0.0,0.0,56,-99.99,,,-99.99,,2013-05-15 14:27:00,
2013-05-15 10:47:00,77.0,56.0,30.17,North,0,0.0,0.0,49,-99.99,,,-99.99,,2013-05-15 14:47:00,
2013-05-15 10:59:00,77.0,59.0,30.17,North,0,0.0,0.0,54,-99.99,,,-99.99,,2013-05-15 14:59:00,
2013-05-15 11:08:00,76.0,59.0,30.18,North,0,0.0,0.0,56,-99.99,,,-99.99,,2013-05-15 15:08:00,
2013-05-15 11:16:00,76.0,59.0,30.18,North,0,0.0,0.0,56,-99.99,,,-99.99,,2013-05-15 15:16:00,
2013-05-15 11:28:00,76.0,58.0,30.18,NNE,20,1.0,20.0,53,-99.99,,,-99.99,,2013-05-15 15:28:00,
2013-05-15 11:47:00,78.0,58.0,30.18,North,0,0.0,0.0,50,-99.99,,,-99.99,,2013-05-15 15:47:00,
2013-05-15 12:02:00,78.0,58.0,30.18,North,0,0.0,0.0,51,-99.99,,,-99.99,,2013-05-15 16:02:00,
2013-05-15 12:10:00,79.0,59.0,30.18,North,0,0.0,0.0,50,-99.99,,,-99.99,,2013-05-15 16:10:00,
2013-05-15 12:22:00,79.0,59.0,30.18,North,0,0.0,0.0,50,-99.99,,,-99.99,,2013-05-15 16:22:00,
2013-05-15 12:28:00,79.0,59.0,30.18,North,0,0.0,0.0,50,-99.99,,,-99.99,,2013-05-15 16:28:00,
2013-05-15 13:00:00,79.0,57.0,30.18,North,0,0.0,0.0,47,-99.99,,,-99.99,,2013-05-15 17:00:00,
2013-05-15 13:10:00,79.0,58.0,30.18,North,0,0.0,0.0,48,-99.99,,,-99.99,,2013-05-15 17:10:00,
2013-05-15 13:27:00,79.0,58.0,30.17,North,0,0.0,0.0,48,-99.99,,,-99.99,,2013-05-15 17:27:00,
2013-05-15 13:37:00,79.0,58.0,30.17,North,0,0.0,0.0,49,-99.99,,,-99.99,,2013-05-15 17:37:00,
2013-05-15 13:46:00,79.0,58.0,30.17,North,0,0.0,0.0,49,-99.99,,,-99.99,,2013-05-15 17:46:00,
2013-05-15 13:59:00,79.0,58.0,30.16,North,0,0.0,0.0,49,-99.99,,,-99.99,,2013-05-15 17:59:00,
2013-05-15 14:07:00,80.0,58.0,30.16,North,0,0.0,0.0,47,-99.99,,,-99.99,,2013-05-15 18:07:00,
2013-05-15 14:16:00,80.0,58.0,30.16,North,0,0.0,0.0,47,-99.99,,,-99.99,,2013-05-15 18:16:00,
2013-05-15 14:27:00,79.0,59.0,30.16,North,0,0.0,0.0,50,-99.99,,,-99.99,,2013-05-15 18:27:00,
2013-05-15 14:37:00,77.0,59.0,30.16,North,0,0.0,0.0,53,-99.99,,,-99.99,,2013-05-15 18:37:00,
2013-05-15 14:46:00,77.0,59.0,30.16,North,0,0.0,0.0,53,-99.99,,,-99.99,,2013-05-15 18:46:00,
2013-05-15 14:57:00,76.0,60.0,30.15,North,0,0.0,0.0,57,-99.99,,,-99.99,,2013-05-15 18:57:00,
2013-05-15 15:09:00,76.0,60.0,30.15,North,0,0.0,0.0,58,-99.99,,,-99.99,,2013-05-15 19:09:00,
2013-05-15 15:15:00,76.0,60.0,30.15,North,0,0.0,0.0,58,-99.99,,,-99.99,,2013-05-15 19:15:00,
2013-05-15 15:30:00,77.0,61.0,30.14,North,0,0.0,0.0,57,-99.99,,,-99.99,,2013-05-15 19:30:00,
2013-05-15 15:38:00,77.0,61.0,30.13,North,0,0.0,0.0,57,-99.99,,,-99.99,,2013-05-15 19:38:00,
2013-05-15 15:46:00,77.0,61.0,30.13,North,0,0.0,0.0,57,-99.99,,,-99.99,,2013-05-15 19:46:00,
2013-05-15 15:58:00,76.0,60.0,30.13,North,0,0.0,0.0,58,-99.99,,,-99.99,,2013-05-15 19:58:00,
2013-05-15 16:08:00,80.0,61.0,30.13,North,0,0.0,0.0,52,-99.99,,,-99.99,,2013-05-15 20:08:00,
2013-05-15 16:19:00,80.0,61.0,30.13,North,0,0.0,0.0,52,-99.99,,,-99.99,,2013-05-15 20:19:00,
2013-05-15 16:29:00,78.0,60.0,30.11,North,0,0.0,0.0,54,-99.99,,,-99.99,,2013-05-15 20:29:00,
2013-05-15 16:38:00,78.0,61.0,30.10,NE,45,3.0,18.0,55,-99.99,,,-99.99,,2013-05-15 20:38:00,
2013-05-15 16:46:00,78.0,61.0,30.10,NE,45,3.0,18.0,55,-99.99,,,-99.99,,2013-05-15 20:46:00,
2013-05-15 17:19:00,77.0,61.0,30.10,NE,37,9.0,20.0,57,-99.99,,,-99.99,,2013-05-15 21:19:00,
2013-05-15 17:28:00,75.0,60.0,30.10,North,0,0.0,0.0,60,-99.99,,,-99.99,,2013-05-15 21:28:00,
2013-05-15 17:40:00,76.0,61.0,30.10,North,0,0.0,0.0,60,-99.99,,,-99.99,,2013-05-15 21:40:00,
2013-05-15 17:50:00,76.0,61.0,30.10,North,0,0.0,0.0,60,-99.99,,,-99.99,,2013-05-15 21:50:00,
2013-05-15 18:00:00,75.0,62.0,30.10,East,83,7.0,20.0,64,-99.99,,,-99.99,,2013-05-15 22:00:00,
2013-05-15 18:10:00,75.0,61.0,30.10,North,0,0.0,0.0,62,-99.99,,,-99.99,,2013-05-15 22:10:00,
2013-05-15 18:18:00,75.0,61.0,30.10,North,0,0.0,0.0,62,-99.99,,,-99.99,,2013-05-15 22:18:00,
2013-05-15 18:29:00,75.0,61.0,30.10,North,0,0.0,0.0,61,-99.99,,,-99.99,,2013-05-15 22:29:00,
2013-05-15 18:40:00,75.0,61.0,30.09,North,0,0.0,0.0,62,-99.99,,,-99.99,,2013-05-15 22:40:00,
2013-05-15 18:49:00,75.0,61.0,30.09,North,0,0.0,0.0,62,-99.99,,,-99.99,,2013-05-15 22:49:00,
2013-05-15 18:59:00,76.0,62.0,30.09,ENE,77,2.0,22.0,62,-99.99,,,-99.99,,2013-05-15 22:59:00,
2013-05-15 19:07:00,75.0,60.0,30.09,East,79,9.0,22.0,59,-99.99,,,-99.99,,2013-05-15 23:07:00,
2013-05-15 19:28:00,75.0,61.0,30.09,North,0,0.0,0.0,62,-99.99,,,-99.99,,2013-05-15 23:28:00,
2013-05-15 19:38:00,75.0,60.0,30.10,North,0,0.0,0.0,60,-99.99,,,-99.99,,2013-05-15 23:38:00,
2013-05-15 19:49:00,75.0,60.0,30.10,North,0,0.0,0.0,60,-99.99,,,-99.99,,2013-05-15 23:49:00,
2013-05-15 20:01:00,74.0,59.0,30.09,ENE,72,18.0,25.0,59,-99.99,,,-99.99,,2013-05-16 00:01:00,
2013-05-15 20:06:00,75.0,60.0,30.09,East,90,9.0,22.0,59,-99.99,,,-99.99,,2013-05-16 00:06:00,
2013-05-15 20:17:00,75.0,60.0,30.09,East,90,9.0,22.0,59,-99.99,,,-99.99,,2013-05-16 00:17:00,
2013-05-15 20:27:00,75.0,60.0,30.09,North,0,0.0,0.0,60,-99.99,,,-99.99,,2013-05-16 00:27:00,
2013-05-15 20:35:00,74.0,59.0,30.10,NE,37,14.0,27.0,59,-99.99,,,-99.99,,2013-05-16 00:35:00,
2013-05-15 20:49:00,74.0,60.0,30.10,ENE,77,3.0,23.0,61,-99.99,,,-99.99,,2013-05-16 00:49:00,
2013-05-15 20:58:00,74.0,60.0,30.10,ENE,77,3.0,23.0,61,-99.99,,,-99.99,,2013-05-16 00:58:00,
2013-05-15 21:07:00,75.0,60.0,30.10,North,0,0.0,0.0,59,-99.99,,,-99.99,,2013-05-16 01:07:00,
2013-05-15 21:30:00,74.0,59.0,30.10,North,0,0.0,0.0,59,-99.99,,,-99.99,,2013-05-16 01:30:00,
2013-05-15 21:37:00,74.0,59.0,30.10,North,0,0.0,0.0,59,-99.99,,,-99.99,,2013-05-16 01:37:00,
2013-05-15 21:48:00,74.0,59.0,30.10,North,0,0.0,0.0,59,-99.99,,,-99.99,,2013-05-16 01:48:00,
2013-05-15 22:07:00,75.0,58.0,30.11,North,0,0.0,0.0,56,-99.99,,,-99.99,,2013-05-16 02:07:00,
2013-05-15 22:17:00,75.0,58.0,30.11,North,0,0.0,0.0,56,-99.99,,,-99.99,,2013-05-16 02:17:00,
2013-05-15 22:28:00,74.0,58.0,30.11,North,0,0.0,0.0,57,-99.99,,,-99.99,,2013-05-16 02:28:00,
2013-05-15 22:38:00,74.0,57.0,30.11,North,0,0.0,0.0,55,-99.99,,,-99.99,,2013-05-16 02:38:00,
2013-05-15 22:46:00,74.0,57.0,30.11,North,0,0.0,0.0,55,-99.99,,,-99.99,,2013-05-16 02:46:00,
2013-05-15 22:55:00,74.0,57.0,30.11,North,0,0.0,0.0,55,-99.99,,,-99.99,,2013-05-16 02:55:00,
2013-05-15 23:07:00,74.0,57.0,30.12,North,0,0.0,0.0,55,-99.99,,,-99.99,,2013-05-16 03:07:00,
2013-05-15 23:16:00,74.0,57.0,30.12,North,0,0.0,0.0,55,-99.99,,,-99.99,,2013-05-16 03:16:00,
2013-05-15 23:26:00,74.0,58.0,30.12,North,0,0.0,0.0,58,-99.99,,,-99.99,,2013-05-16 03:26:00,
2013-05-15 23:37:00,74.0,58.0,30.12,North,0,0.0,0.0,57,-99.99,,,-99.99,,2013-05-16 03:37:00,
2013-05-15 23:45:00,74.0,58.0,30.12,North,0,0.0,0.0,57,-99.99,,,-99.99,,2013-05-16 03:45:00,
2013-05-15 23:57:00,74.0,58.0,30.12,North,0,0.0,0.0,57,-99.99,,,-99.99,,2013-05-16 03:57:00,